Regional Weather Roundup
Issued by NWS Cleveland, OH

Home | Current Version | Previous Version | Graphics & Text | Print | Product List | Glossary On
Versions: 1 2 3 4 5 6 7 8 9 10 11 12 13 14 15 16 17 18 19 20 21 22 23 24 25 26 27 28 29 30 31 32 33 34 35 36 37 38 39 40 41 42 43 44 45 46 47 48 49 50
000
ASUS41 KCLE 020310
RWRCLE
OHIO REGIONAL WEATHER ROUNDUP
NATIONAL WEATHER SERVICE CLEVELAND, OH
1100 PM EDT WED APR 01 2015

NOTE: "FAIR" INDICATES FEW OR NO CLOUDS BELOW 12,000 FEET WITH NO
SIGNIFICANT WEATHER AND/OR OBSTRUCTIONS TO VISIBILITY.

OHZ001>008-015>018-024>027-034-035-043-044-020400-
   NORTHWEST OHIO

CITY           SKY/WX    TMP DP  RH WIND       PRES   REMARKS
DEFIANCE       PTCLDY    55  35  47 S10       30.02S
FINDLAY        PTCLDY    47  33  58 S9        30.04F
TOLEDO EXPRESS MOCLDY    53  34  48 S8        30.02S
TOLEDO EXEC    MOCLDY    49  35  58 S10       30.03S
LIMA           CLEAR     50  33  52 S8        30.05S
$$

OHZ009>014-019>023-028>033-038-089-020400-
   NORTHEAST OHIO

CITY           SKY/WX    TMP DP  RH WIND       PRES   REMARKS
CLE-HOPKINS    PTCLDY    47  33  58 S9        30.09F
CLE-LAKEFRONT  CLEAR     53  33  46 S12       30.05F
CUY CO. ARPT   CLEAR     52  36  54 S12       30.08F
LORAIN-ELYRIA  PTCLDY    50  34  54 S10       30.06F
ASHTABULA      CLEAR     44  33  65 S8        30.08F
AKRON-CANTON   CLEAR     49  31  49 S10       30.10F
WOOSTER        CLEAR     46  33  60 S7        30.09F
MANSFIELD      CLEAR     48  34  58 S9        30.08F
YOUNGSTOWN     CLEAR     48  30  49 S8        30.10F
$$

OHZ042-051>053-060>062-070>072-077>081-020400-
  SOUTHWEST OHIO

CITY           SKY/WX    TMP DP  RH WIND       PRES   REMARKS
CINC-COVINGTON PTCLDY    50  29  44 SE5       30.07F
CINC-LUNKEN    PTCLDY    44  34  67 CALM      30.09S
HAMILTON       MOCLDY    45  32  60 CALM      30.08S
DAYTON         PTCLDY    53  30  41 S9        30.07F
WRIGHT-PAT AFB CLEAR     52  30  43 SE6       30.07F
DAYTON GENERAL PTCLDY    54  28  36 S6        30.07F
WILMINGTON     PTCLDY    49  31  49 SE6       30.08F
$$

OHZ036-037-039>041-045>050-054>059-063>069-073>076-082>088-020400-
  CENTRAL AND SOUTHEAST OHIO

CITY           SKY/WX    TMP DP  RH WIND       PRES   REMARKS
COLUMBUS       PTCLDY    52  31  44 SE6       30.09F
OSU AIRPORT    CLEAR     53  30  41 SE6       30.08F
BOLTON FIELD   CLEAR    N/A N/A N/A SE5       30.09S
RICKENBACK AFB CLEAR     47  31  54 SE3       30.08S
NEWARK         CLEAR     40  34  79 CALM      30.09F
MARION         CLEAR     46  32  58 S7        30.08S
LANCASTER      CLEAR     42  33  70 S3        30.10F
ZANESVILLE     CLEAR     44  29  55 SE5       30.11F
NEW PHILLY     FAIR      43  32  65 SE7       30.13S
$$



USA.gov is the U.S. government's official web portal to all federal, state and local government web resources and services.